Location: Çukurelma
(36.8277°N, 30.0082°E)
Time: 21:55:18
(UTC+00:00)

Daily predictions for brighter satellites

Satellite Brightness Start Highest point End
(mag) Time Altitude Azimuth Time Altitude Azimuth Time Altitude Azimuth
Cosmos 2322 Rocket 3.5 15:53:21 10° NW 15:58:41 46° WSW 16:03:58 10° S
Thor Agena Rocket 4.2 15:54:31 10° S 15:59:30 63° WSW 16:04:35 10° NNW
Cosmos 1378 Rocket 3.5 15:55:35 10° S 15:59:54 77° E 16:04:12 10° N
NOSS 3-3 (A) 3.5 15:56:00 10° SSW 16:00:54 81° ESE 16:06:35 10° NE
Resurs 01 Rocket 3.1 15:58:17 10° ESE 16:00:57 16° ENE 16:03:39 10° NNE
ATLAS 5 CENTAUR R/B 2.2 15:57:47 10° NNW 16:02:10 44° NE 16:07:30 10° SE
Cosmos 1459 Rocket 4.2 15:56:15 10° N 16:02:30 82° W 16:08:48 10° S
GP-B 3.0 15:59:17 10° S 16:03:37 80° E 16:08:00 10° N
Cosmos 2292 Rocket 3.6 16:02:41 10° SSW 16:05:33 49° W 16:08:23 10° N
Cosmos 2219 Rocket 2.5 16:02:56 10° NNW 16:08:31 75° WSW 16:14:03 10° SSE
IRS-P3 4.1 16:03:46 10° SSE 16:09:03 77° ENE 16:14:23 10° N
SKYMED 2 3.6 16:04:50 10° NNE 16:09:11 90° NW 16:13:31 10° SSW
CZ-4 R/B 4.3 16:07:26 10° SSE 16:11:22 72° ENE 16:15:20 10° N
PSLV R/B 4.3 16:08:22 10° SE 16:11:51 27° ENE 16:15:20 10° NNE
SJ-12 4.4 16:08:44 10° S 16:12:29 59° W 16:16:15 10° NNW
Cosmos 2016 Rocket 4.0 16:07:08 10° N 16:13:23 76° E 16:19:41 10° S
Cosmos 2322 4.0 16:07:57 10° N 16:13:25 44° ENE 16:18:50 10° SE
COSMO-SKYMED 1 2.5 16:10:21 10° NNE 16:14:24 56° E 16:18:25 10° S
Resurs 1-3 3.6 16:10:27 10° SSE 16:14:37 53° ENE 16:18:49 10° N
Cosmos 1802 Rocket 4.2 16:10:08 10° N 16:16:34 85° W 16:22:59 10° S
Cosmos 1025 Rocket 3.0 16:14:11 10° S 16:18:24 64° E 16:22:40 10° NNE
Cosmos 2227 Rocket 3.6 16:15:17 10° SE 16:18:43 17° E 16:21:40 12° ENE
SPOT 1/Viking Rocket 3.7 16:14:49 10° S 16:19:55 81° WSW 16:25:04 10° NNW
Cosmos 2233 Rocket 4.0 16:23:07 10° N 16:29:24 74° E 16:35:41 10° SSE
SJ-6B 3.9 16:30:57 18° ENE 16:30:57 18° ENE 16:33:13 10° NNE
CZ-2D R/B 3.2 16:29:49 10° SSE 16:33:38 71° ENE 16:37:33 10° N
Cosmos 1725 Rocket 4.4 16:28:00 10° NNW 16:34:12 68° W 16:40:24 10° S
Cosmos 1674 Rocket 4.1 16:30:03 10° SSW 16:34:21 62° W 16:38:43 10° N
Cosmos 2344 4.4 16:29:04 10° S 16:36:21 30° ESE 16:41:07 16° ENE
Radarsat Rocket 3.8 16:36:05 10° SSE 16:41:51 74° ENE 16:47:52 10° NNW
Cosmos 2061 Rocket 4.0 16:37:50 10° N 16:44:14 84° E 16:50:31 10° S
CZ-4C R/B 3.2 16:40:51 10° WSW 16:44:27 31° NW 16:48:50 10° NNE
Atlas Centaur 2 3.3 16:37:09 10° WSW 16:44:29 48° S 16:49:03 19° ESE
Cosmos 1315 Rocket 3.4 16:41:12 10° NNW 16:44:55 56° W 16:48:37 10° S
Meteor 2-1 Rocket 4.3 16:46:44 10° N 16:52:34 88° ENE 16:58:30 10° S
CARTOSAT-1 3.4 16:50:45 10° SSE 16:54:57 88° ENE 16:59:09 10° N
Helios 1A Rocket 2.3 16:55:30 35° NE 16:56:32 53° E 16:59:43 10° S
NOSS 0 Rocket 3.9 16:50:59 10° NNW 16:57:12 67° ENE 17:03:22 10° SSE
BlueWalker 3 4.0 16:58:07 10° WNW 17:01:04 25° SW 17:04:00 10° S
SL-24 R/B 4.5 16:57:31 10° SSE 17:01:39 68° ENE 17:06:14 10° N
CRYOSAT 2 4.2 16:56:57 10° N 17:01:51 75° E 17:06:42 10° S
Cosmos 2297 Rocket 2.4 16:57:34 10° SSW 17:03:13 75° WNW 17:08:53 10° NNE
Tiangong -2.3 17:01:27 10° WSW 17:04:37 77° SSE 17:04:47 73° ESE
Cosmos 1464 Rocket 4.4 16:58:59 10° N 17:04:53 39° ENE 17:10:42 10° SE
Cosmos 1570 Rocket 3.9 17:00:24 10° SSW 17:05:41 89° ESE 17:10:59 10° NNE
Cosmos 1975 Rocket 3.0 17:07:41 10° S 17:11:58 56° E 17:13:25 37° NE
Cosmos 1125 Rocket 3.4 17:12:33 10° NNW 17:17:45 88° WSW 17:22:56 10° SSE
Cosmos 1455 Rocket 2.8 17:13:44 10° N 17:18:02 78° E 17:22:19 10° S
Cosmos 2208 Rocket 3.9 17:17:36 10° SSW 17:22:47 90° WNW 17:26:55 17° NNE
Meteor 1-27 4.1 17:17:59 10° N 17:23:48 79° E 17:29:36 10° SSE
Meteor 2-17 Rocket 4.4 17:21:39 10° S 17:27:43 84° W 17:33:48 10° N
Delta 2 Rocket 4.0 17:25:50 10° WSW 17:27:57 38° WSW 17:27:57 38° WSW
COSMOS 2428 3.8 17:27:52 10° NW 17:33:16 43° WSW 17:38:36 10° S
Cosmos 2263 Rocket 3.0 17:31:23 10° S 17:34:50 34° SSE 17:34:50 34° SSE
Resurs 01 Rocket 2.9 17:32:50 10° S 17:36:57 41° W 17:41:06 10° NNW
Cosmos 1980 3.5 17:31:32 10° NNW 17:37:14 85° ENE 17:38:56 47° SSE
Cosmos 44 Rocket 3.8 17:36:16 10° SW 17:41:01 56° WNW 17:42:41 38° N
Cosmos 2237 Rocket 2.1 17:37:09 10° NNW 17:42:51 88° ENE 17:43:58 60° SSE
SEDSat Delta rocket 4.2 17:39:33 10° WSW 17:42:29 30° SSW 17:42:29 30° SSW
ATLAS 5 CENTAUR R/B 4.2 17:40:26 10° WNW 17:44:23 24° WSW 17:48:56 10° SSW
Cosmos 2227 Rocket 2.7 17:56:38 10° SW 18:02:10 58° WNW 18:03:35 45° NNW
SL-16 R/B 4.2 18:01:15 10° N 18:02:27 16° N 18:02:27 16° N
BREEZE-M DEB (TANK) 3.8 18:02:51 10° WSW 18:06:45 66° NNW 18:08:21 52° NNE
NOSS 3-4 (A) 3.9 18:08:41 10° NNW 18:15:10 73° NNE 18:15:10 73° NNE
NOSS 3-4 (C) 3.9 18:08:57 10° NNW 18:15:23 71° N 18:15:23 71° N
Gbstr 26 Del rocket 4.2 18:11:32 10° SW 18:17:51 78° WSW 18:17:51 78° WSW
Atlas Centaur 2 3.6 18:26:08 10° W 18:30:59 36° SW 18:30:59 36° SW
Cosmos 2344 4.2 18:42:41 10° WSW 18:50:24 46° NW 18:51:12 44° NW
